Погода в Белу-Оризонти

Бразилия     19°54′52″S   43°56′24″W
темп.,
°C
ветер,
м/с
пор.,
м/с
влажн.,
%
обл.,
%
осадки,
мм/ч
давл.,
гПа
погр.,
м
27 февраля, сб
сб2700:00+19вюв2387100 4.8 1016227
03:00+19всв2687100 6.0 1014470
06:00+19в2788100 2.3 1015470
09:00+21всв3675100 2.3 1016739
12:00+24всв3656100 0.0 10161247
15:00+26св3444100 0.0 10141601
18:00+22всв2464100 0.0 1013515
21:00+20в2673100 0.0 1015337
28 февраля, вс
вс2800:00+19в387870 0.0 1015411
03:00+18в378585 0.2 1014438
06:00+18в3984100 0.0 1015478
09:00+20всв3872100 0.0 1016708
12:00+26св4748100 0.0 10151365
15:00+27св4546100 0.0 10121720
18:00+23всв466597 0.1 1012782
21:00+20в377399 0.1 1014463
1 марта, пн
пн100:00+19в388091 0.0 1015505
03:00+18в378485 0.0 1014392
06:00+17в26850 0.0 1015367
09:00+22всв366850 0.0 1016814
12:00+26св4549100 0.0 10151501
15:00+26св3452100 0.1 10121388
18:00+23всв366665 0.2 1012720
21:00+20в387955 0.2 1014516
2 марта, вт
вт200:00+19в3879100 0.0 1015527
03:00+18в2686100 0.0 1015434
06:00+17в2687100 0.0 1016369
09:00+22всв366598 0.0 1018859
12:00+27св453938 0.0 10171586
15:00+27св444549 0.0 10141852
18:00+23всв24594 0.0 1013785
21:00+20в25782 0.0 1016322
3 марта, ср
ср300:00+19в26820 0.0 1017337
03:00+19всв258535 0.1 1016297
06:00+18в138799 0.5 1018168
09:00+23св2469100 1.0 1019808
12:00+27св3352100 0.2 10181345
15:00+27ссв335293 0.7 10141480
18:00+24всв236196 0.8 1014738
21:00+21вюв236276 0.8 1017299